C/2019 T3 ( ATLAS )

Japanese version
Home page
Updated on November 9, 2019

---------------------------------------------------------------------

* Profile

Discovery Date October 6, 2019
Magnitude 18.9 mag
Discoverer Asteroid Terrestrial-Impact Last Alert System (ATLAS) search program

* Orbital Elements

Epoch 2021 Mar. 7.0 TT = JDT 2459280.5
T 2021 Mar. 2.71784 TT                                  Williams
q   5.9461555            (2000.0)            P               Q
z  +0.0002658      Peri.  112.28208     +0.60550651     +0.57391410
 +/-0.0000305      Node   139.52126     -0.19755345     -0.56271084
e   0.9984196      Incl.  121.86249     +0.77093093     -0.59496145
From 103 observations 2019 Jan. 17-Oct. 31, mean residual 0".4.

* Magnitudes Graph

        m1 = 2.0 + 5 log d + 15.0 log r

---------------------------------------------------------------------

The orbital elements are published on M.P.E.C. 2019-V116.
The magnitudes graphs are made with Comet for Windows.

---------------------------------------------------------------------

Copyright(C) Seiichi Yoshida (comet@aerith.net). All rights reserved.